sat.trackr.live / text

‹ back to catalog

QIANFAN-139

NORAD 69085 · 2026-104N

PAYLOAD ACTIVE UNKNOWN

§ Identity

Operator
Country
PRC
Launch date
2026-05-12
Launch site
TAISC
Launch vehicle
Mass (kg)
RCS (m²)

External: N2YO · Heavens-Above · Gunter

§ Orbital elements

Epoch: 2026-09-20T04:46:40.499040Z

Period
106.59 min
Inclination
88.9899°
Eccentricity
0.0002491
Mean motion
13.51030564 rev/d
Perigee alt
1,066.6 km
Apogee alt
1,070.3 km
Semi-major
7,446.6 km
B*
6.3564e-5
RAAN
331.7778°
Arg perigee
100.6127°
Mean anomaly
259.5305°
Rev number
1,798

§ Raw data

QIANFAN-1391 69085U 26104N   26263.19907985  .00000053  00000+0  63564-4 0  99932 69085  88.9899 331.7778 0002491 100.6127 259.5305 13.51030564 17982

JSON: /api/v1/satellites/69085 · /tle

For live sub-satellite position, see the globe view (requires WebGL).

§ Visibility from observer

Set your observer location to see the next 7 days of passes ≥ 10°. The values pass through the URL so the page stays shareable.

No JS? Fill the form by hand. The geolocation button needs JavaScript.